Wind_Speed
31 26 31 34 28 16 20 21 18 27 26 28 29 32 23 31 35 37 38 36 35 34 33 32 31 30 28 27 26 25 25 25 24 24 23 23 22 21 19 18 18 17 18 18
31 32 28 22 26 25 17 21 20 24 23 25 25 27 31 22 31 33 34 34 32 31 30 30 29 29 29 28 26 25 24 24 23 24 24 24 23 22 22 21 20 20 20 20
28 27 30 33 31 26 20 24 27 23 27 25 23 27 31 33 28 30 31 30 29 29 29 30 30 29 29 28 26 25 23 22 22 23 23 24 24 23 23 22 22 22 23 23
28 25 21 33 30 29 24 24 23 28 26 18 26 14 28 33 34 35 31 29 29 30 31 32 31 30 29 28 26 24 22 20 19 20 21 21 22 22 22 22 22 22 22 23
27 28 29 26 39 35 25 20 21 25 22 19 19 14 21 28 36 36 33 33 34 33 33 33 32 31 29 27 25 24 22 21 20 19 19 20 20 20 20 21 21 21 22 23
26 23 21 31 26 33 29 21 21 17 12 12 26 22 28 36 34 34 38 38 39 40 39 36 34 31 29 27 25 24 23 22 21 20 19 20 20 21 21 21 21 21 20 20
25 26 24 24 28 30 34 24 6 7 8 10 19 18 33 19 31 30 32 33 32 37 41 39 35 32 29 28 26 25 23 22 21 21 20 19 19 19 19 18 17 16 15 15
20 16 30 33 30 37 40 37 14 13 9 14 15 12 18 30 30 21 21 31 34 36 38 38 36 33 30 28 26 25 24 22 22 21 20 19 18 18 17 16 16 16 16 16
15 20 18 28 33 29 28 39 35 15 5 10 17 21 30 28 26 30 30 33 30 34 38 37 36 33 30 28 26 25 23 22 21 20 19 19 18 17 17 17 17 17 18 19
18 7 20 26 28 30 27 33 26 22 7 12 8 15 20 15 36 31 29 29 29 30 35 36 35 32 30 28 27 25 24 22 21 20 20 19 19 19 19 19 19 20 21 22
41 30 13 25 35 30 27 29 29 24 27 12 15 14 15 21 27 24 35 34 33 30 30 32 33 32 29 28 26 25 24 22 22 21 21 20 20 20 20 21 22 23 24 25
34 21 23 30 29 35 34 33 38 22 23 36 30 21 3 12 19 26 28 30 31 32 30 30 30 29 28 27 26 25 24 23 22 22 21 21 21 22 22 23 25 26 27 29
26 18 7 13 28 38 38 38 34 39 23 28 17 12 30 20 7 15 22 25 26 28 30 30 29 28 27 26 26 25 25 24 24 23 23 23 23 24 25 26 28 29 31 33
14 22 23 15 14 23 42 45 45 38 29 28 36 27 24 20 22 25 17 16 21 24 27 28 28 28 27 27 26 26 25 25 24 24 24 24 25 26 27 29 31 32 34 35
18 22 21 31 27 22 20 39 45 47 41 30 33 33 32 27 19 19 19 18 20 23 26 27 27 28 29 29 28 26 25 24 23 24 25 26 28 29 30 32 33 34 35 36
25 23 24 26 28 28 30 29 33 42 48 48 40 32 25 30 32 30 26 25 29 31 31 31 32 33 31 29 26 25 25 23 22 24 25 27 28 30 31 32 34 35 35 36
19 17 19 15 20 22 19 38 36 34 41 43 42 40 39 33 30 32 34 32 30 32 35 36 32 26 24 24 23 20 20 21 24 25 26 27 29 30 31 33 35 36 37 38
27 25 19 6 9 6 16 21 34 41 39 41 40 39 36 32 30 29 31 31 35 33 29 25 25 25 22 18 18 20 20 22 25 25 26 28 30 32 34 36 37 38 39 40
27 26 15 7 11 13 17 15 23 32 38 39 40 39 37 33 26 28 30 28 27 28 26 25 24 20 17 16 18 19 20 23 25 26 28 30 32 34 36 37 38 40 42 43
26 26 22 13 5 7 8 15 19 20 24 31 36 33 28 28 29 30 32 31 28 24 23 21 16 14 13 14 17 20 22 26 27 28 30 32 34 36 38 40 41 43 46 47
19 21 25 16 9 8 12 9 14 14 9 20 25 22 23 28 27 29 30 28 26 23 17 13 13 13 13 15 18 22 26 28 29 30 32 35 38 40 42 44 45 47 49 50
17 13 13 15 10 9 8 12 14 9 7 17 22 22 24 24 24 26 26 23 18 14 13 12 12 12 14 17 19 23 27 30 32 34 36 38 40 43 45 48 48 50 52 52
13 14 9 13 11 10 15 13 10 10 16 20 24 27 25 24 25 22 19 18 15 12 10 10 12 14 16 18 21 25 29 32 34 36 38 41 43 46 48 50 51 52 51 51
18 18 11 13 11 15 19 21 17 24 26 29 30 29 27 24 25 20 17 14 12 9 8 10 12 16 18 21 24 26 29 33 36 39 42 44 46 47 48 49 50 51 51 51
14 15 17 14 12 21 21 24 29 33 33 31 30 27 26 21 19 17 13 10 7 6 7 9 12 16 18 21 26 29 32 35 38 41 42 44 45 46 47 48 49 50 50 51
13 14 17 14 20 20 32 35 35 32 32 29 23 23 22 20 15 12 9 6 4 4 7 9 12 16 20 24 28 32 35 37 39 41 42 44 45 46 47 47 46 43 45 44
Wind_Direction
192 194 201 210 208 215 213 204 193 208 210 212 214 216 221 223 221 221 222 222 224 226 231 236 240 243 245 248 250 256 259 255 249 245 242 244 245 244 240 233 236 236 237 238
200 209 213 210 209 214 216 195 204 212 211 213 221 223 222 224 224 225 226 227 229 233 239 243 244 245 248 251 255 255 254 252 245 241 237 238 240 242 245 245 241 242 242 243
207 220 214 212 211 209 214 213 217 217 209 216 219 229 226 226 227 227 229 231 233 238 242 246 248 249 250 253 254 253 250 247 241 237 237 237 239 242 245 247 248 248 247 249
220 216 224 216 216 209 215 213 224 226 214 214 216 231 231 230 232 233 233 238 241 244 248 249 250 251 251 251 250 249 245 243 238 235 236 238 239 243 245 248 250 252 254 256
218 224 217 219 224 218 221 220 221 227 223 231 223 228 233 231 234 238 240 242 245 247 248 250 249 249 250 249 246 243 240 239 237 234 235 238 242 245 250 252 256 260 263 265
223 231 226 234 226 224 214 209 209 214 211 237 230 219 241 238 240 241 242 245 248 249 247 247 246 246 245 243 241 238 237 238 239 239 239 242 246 249 254 258 261 264 266 267
222 223 224 211 214 208 213 196 166 200 209 235 221 222 232 238 237 237 240 243 246 246 243 241 241 240 239 238 237 235 234 235 237 239 241 241 244 247 251 254 256 256 256 256
204 214 211 213 210 206 203 201 194 214 211 214 221 227 232 238 229 215 226 236 239 240 240 238 236 235 234 234 234 234 234 233 234 235 236 237 239 240 243 245 247 250 253 256
211 225 230 217 220 210 201 211 213 242 267 239 221 239 247 243 229 229 233 237 240 237 232 230 230 231 231 230 231 231 231 232 232 232 232 233 233 235 237 241 246 251 257 262
219 231 221 213 212 214 220 214 206 216 207 227 208 237 233 240 236 224 226 229 232 232 228 226 227 228 228 227 228 229 230 230 229 228 227 228 231 235 240 245 251 256 261 266
222 219 212 205 208 208 202 204 211 222 226 236 248 241 246 241 240 236 235 233 230 226 224 224 224 224 224 225 226 228 228 226 225 225 228 231 236 241 247 252 257 262 266 269
233 228 220 207 210 210 209 215 209 215 216 231 248 255 259 236 236 232 232 236 231 225 224 221 220 221 222 224 224 223 223 224 226 229 233 237 242 248 253 259 264 268 271 275
227 222 201 209 217 215 215 211 214 220 231 225 217 228 239 243 242 230 227 229 228 227 225 222 220 220 221 220 220 221 222 225 228 233 238 244 250 255 259 264 268 272 275 277
230 224 218 230 230 220 217 220 221 220 219 225 232 237 240 244 243 236 231 230 228 225 222 219 218 216 215 217 218 220 222 226 230 237 244 250 257 263 268 272 275 278 279 280
264 266 265 238 237 232 230 228 225 218 222 220 240 242 241 241 238 225 227 236 229 223 220 214 213 214 212 212 214 218 224 229 234 242 251 258 264 269 273 277 280 281 283 284
242 244 260 263 259 243 232 224 225 233 235 234 239 241 239 233 226 230 227 245 244 216 209 209 210 210 212 213 213 218 228 238 247 252 258 265 271 275 278 281 283 285 286 288
267 259 250 257 259 250 247 230 225 224 227 233 237 243 240 236 232 239 246 230 217 212 209 206 207 211 213 215 219 226 235 244 254 261 268 273 277 281 284 286 287 287 287 287
251 256 248 246 195 217 252 239 227 227 231 233 238 241 245 243 240 232 217 213 208 206 205 203 204 205 206 211 224 235 246 257 264 271 277 281 284 286 286 287 287 288 289 288
239 237 226 206 210 263 266 241 226 220 227 230 233 234 238 240 223 213 207 195 194 196 197 198 200 200 206 220 237 251 260 266 272 278 282 284 285 286 288 289 289 289 289 289
227 224 218 200 225 217 246 232 220 221 234 230 230 232 234 228 213 203 188 185 185 186 188 191 193 203 218 238 254 264 269 273 279 283 285 287 288 289 289 290 291 291 291 290
205 212 216 215 222 251 245 244 210 186 239 219 210 213 210 201 201 185 174 171 174 179 178 186 208 225 239 251 262 270 276 281 286 289 290 291 292 293 293 291 291 290 289 289
204 193 203 212 217 240 215 199 185 217 231 184 182 180 179 168 159 161 158 163 166 166 185 209 229 245 257 267 275 281 285 289 291 293 294 294 293 292 292 292 291 290 290 290
211 208 198 200 207 206 181 173 173 166 162 151 146 142 143 146 147 150 156 159 168 182 201 228 253 266 273 279 283 288 291 294 296 296 295 294 294 293 293 293 293 292 291 290
223 218 216 199 202 187 170 163 153 142 142 139 139 138 136 148 151 156 160 165 174 193 222 248 267 279 288 291 293 293 294 297 297 296 296 295 294 294 294 293 292 291 291 290
231 219 217 218 192 170 159 152 148 146 143 140 141 140 142 146 152 154 160 168 183 214 248 268 280 288 293 297 298 300 301 299 298 298 297 297 297 297 295 294 293 293 292 291
237 228 208 202 185 175 155 147 142 143 140 140 140 142 145 145 150 152 159 174 203 251 278 289 296 303 306 305 305 306 305 305 305 305 304 302 300 299 298 298 297 296 296 294
Height
3067 3071 3069 3071 3077 3083 3086 3089 3089 3088 3091 3093 3094 3097 3100 3102 3104 3107 3109 3112 3116 3119 3122 3124 3125 3127 3129 3131 3132 3132 3133 3134 3135 3136 3138 3140 3141 3143 3144 3145 3146 3147 3148 3149
3065 3063 3068 3075 3076 3079 3082 3084 3085 3087 3089 3092 3093 3094 3096 3098 3100 3103 3105 3108 3112 3115 3117 3119 3121 3123 3124 3126 3127 3127 3128 3129 3129 3130 3132 3135 3136 3138 3139 3140 3142 3143 3144 3145
3058 3061 3065 3068 3072 3076 3078 3079 3079 3083 3085 3087 3089 3090 3091 3094 3095 3097 3101 3104 3107 3110 3112 3114 3116 3117 3119 3120 3121 3123 3123 3123 3124 3125 3127 3129 3131 3133 3134 3136 3137 3138 3139 3140
3057 3059 3060 3064 3067 3072 3075 3076 3079 3081 3083 3086 3086 3083 3084 3088 3090 3092 3096 3099 3103 3105 3107 3109 3110 3112 3113 3115 3116 3118 3119 3119 3120 3121 3122 3124 3126 3128 3129 3131 3131 3132 3133 3134
3051 3053 3057 3059 3061 3067 3073 3074 3077 3079 3082 3081 3081 3085 3078 3079 3081 3087 3091 3094 3096 3099 3101 3103 3104 3105 3107 3109 3110 3112 3114 3115 3116 3116 3118 3119 3121 3122 3124 3125 3126 3127 3128 3128
3050 3050 3053 3056 3061 3064 3068 3071 3074 3076 3079 3075 3075 3077 3070 3070 3076 3080 3082 3085 3088 3091 3093 3095 3097 3099 3100 3102 3104 3106 3108 3110 3111 3112 3114 3115 3116 3118 3119 3120 3121 3122 3122 3123
3043 3045 3047 3050 3054 3057 3062 3066 3072 3075 3072 3064 3068 3068 3063 3062 3066 3070 3074 3077 3079 3081 3084 3087 3089 3092 3094 3096 3098 3100 3103 3105 3106 3108 3109 3110 3111 3112 3113 3114 3115 3116 3117 3118
3037 3040 3038 3040 3042 3043 3049 3055 3055 3056 3056 3057 3062 3054 3052 3055 3060 3062 3064 3067 3070 3072 3075 3079 3082 3085 3087 3090 3092 3095 3097 3099 3101 3102 3104 3105 3107 3108 3109 3110 3111 3112 3113 3113
3031 3031 3031 3034 3038 3042 3045 3044 3052 3053 3051 3049 3047 3046 3049 3047 3050 3053 3056 3058 3060 3062 3066 3070 3074 3078 3081 3084 3087 3089 3091 3093 3096 3098 3099 3101 3102 3103 3105 3106 3107 3108 3108 3108
3023 3026 3025 3029 3033 3036 3035 3043 3048 3048 3045 3042 3037 3040 3036 3038 3042 3045 3047 3050 3052 3055 3058 3063 3068 3072 3075 3078 3081 3084 3086 3088 3091 3093 3095 3097 3098 3099 3101 3102 3102 3103 3103 3103
3015 3019 3019 3022 3022 3026 3030 3032 3036 3039 3036 3030 3030 3028 3030 3033 3036 3038 3041 3043 3046 3049 3052 3057 3061 3066 3070 3073 3076 3079 3081 3084 3086 3089 3091 3093 3094 3095 3096 3097 3097 3098 3098 3098
3008 3009 3011 3012 3014 3018 3020 3023 3026 3025 3028 3027 3029 3024 3027 3028 3030 3034 3036 3038 3042 3045 3048 3052 3056 3061 3065 3068 3071 3074 3077 3079 3082 3084 3086 3088 3089 3090 3091 3091 3091 3091 3091 3091
3002 3001 3004 3005 3009 3008 3008 3014 3016 3021 3024 3018 3022 3017 3025 3027 3028 3029 3031 3034 3037 3040 3043 3047 3052 3056 3060 3063 3067 3070 3072 3075 3077 3079 3081 3082 3083 3084 3084 3085 3085 3084 3084 3083
2996 2994 2994 2992 2993 2996 3000 3003 3008 3013 3013 3011 3007 3016 3019 3022 3024 3026 3028 3030 3033 3037 3040 3043 3047 3051 3054 3058 3062 3065 3068 3070 3073 3074 3076 3077 3077 3078 3077 3077 3077 3076 3075 3074
2993 2991 2989 2988 2989 2990 2993 2994 2998 3000 3003 3005 3007 3009 3014 3018 3020 3023 3025 3026 3028 3031 3035 3039 3043 3047 3049 3053 3056 3060 3063 3065 3067 3069 3070 3071 3071 3071 3070 3069 3068 3067 3065 3064
2985 2983 2983 2983 2983 2983 2985 2987 2989 2992 2995 2996 3000 3002 3006 3009 3011 3015 3018 3020 3023 3025 3029 3032 3036 3039 3043 3048 3051 3055 3058 3060 3062 3064 3064 3064 3064 3063 3062 3060 3058 3057 3055 3053
2981 2979 2979 2977 2977 2978 2979 2975 2980 2984 2986 2989 2989 2995 2999 3002 3004 3007 3010 3012 3016 3020 3023 3025 3031 3037 3041 3045 3049 3051 3054 3056 3056 3057 3057 3057 3056 3054 3053 3051 3048 3047 3045 3043
2973 2975 2976 2973 2974 2974 2963 2966 2970 2974 2978 2980 2983 2987 2991 2994 2997 2999 3002 3007 3009 3015 3021 3026 3030 3034 3038 3041 3045 3048 3049 3050 3050 3050 3050 3049 3047 3045 3043 3041 3039 3036 3034 3032
2965 2968 2969 2969 2967 2963 2960 2961 2963 2965 2968 2972 2975 2978 2982 2986 2988 2992 2996 3002 3009 3013 3018 3023 3028 3031 3036 3039 3041 3043 3044 3043 3043 3043 3042 3041 3039 3037 3034 3032 3029 3026 3023 3020
2958 2960 2964 2963 2962 2956 2954 2956 2957 2960 2961 2963 2967 2971 2975 2978 2981 2986 2991 2998 3005 3012 3017 3022 3025 3030 3034 3036 3037 3037 3038 3036 3037 3036 3034 3032 3029 3027 3024 3021 3017 3013 3009 3007
2952 2953 2955 2956 2955 2952 2950 2952 2954 2960 2959 2955 2960 2966 2970 2974 2980 2984 2991 2998 3005 3011 3015 3019 3024 3028 3030 3032 3032 3032 3030 3029 3029 3027 3025 3022 3019 3015 3012 3008 3005 3001 2998 2993
2947 2948 2949 2951 2951 2949 2947 2949 2954 2954 2952 2954 2957 2963 2968 2975 2981 2988 2994 3000 3005 3010 3015 3019 3022 3024 3026 3027 3026 3025 3023 3022 3020 3018 3015 3012 3008 3004 3000 2995 2992 2987 2983 2979
2944 2943 2942 2944 2943 2941 2942 2947 2950 2951 2954 2956 2961 2966 2973 2979 2985 2991 2997 3002 3007 3011 3014 3017 3019 3020 3021 3021 3020 3018 3015 3013 3010 3007 3004 3000 2996 2992 2986 2981 2976 2972 2968 2963
2937 2937 2939 2940 2939 2939 2941 2946 2950 2954 2958 2961 2967 2972 2978 2984 2989 2995 2999 3004 3008 3011 3013 3015 3015 3015 3015 3014 3012 3011 3008 3005 3002 2998 2993 2989 2984 2979 2974 2968 2963 2958 2953 2949
2934 2934 2935 2937 2937 2939 2942 2946 2951 2955 2961 2966 2971 2977 2983 2988 2992 2996 3000 3004 3007 3009 3011 3011 3011 3011 3010 3008 3005 3002 3000 2996 2991 2986 2981 2976 2970 2965 2959 2954 2949 2943 2939 2934
2930 2931 2932 2934 2936 2938 2944 2948 2954 2961 2964 2970 2977 2981 2985 2989 2993 2997 3000 3003 3005 3006 3007 3007 3007 3005 3003 3000 2997 2992 2987 2982 2976 2972 2966 2961 2954 2949 2943 2938 2934 2930 2923 2919